STARLINK-1200 (45181 NORAD) Tracking and Keplerian Element Data

This shows tracking and keplerian element data for the satellite.

Feedback or suggestion? Click here.




ElementValue
Catalog45181
NameSTARLINK-1200
Epoch Orbit175
Epoch Day193.91667824
Epoch Year2020
RAAN324.7221
Inclination52.9983
Eccentricity9.75E-05
Argument of Perigee109.5624
Mean Anonmoly117.3233
Mean Motion15.05593785
Decay Rate-5.668E-05
L11 45181U 20012D 20193.91667824 -.00005668 00000-0 -37005-3 0 9997
L22 45181 52.9983 324.7221 0000975 109.5624 117.3233 15.05593785 1757

Live tracking and technical data element details for STARLINK-1200 (NORAD 45181). STARLINK-1200 can be tracked NOW for your location showing map with azimuth and elevation plus other details from your city location.

Track the satellite on the map from your city or location and see movement details for azimuth, elevation, latitude, longitude, range, height, and movement on the map or in text.







IsCatalogInMostPopularTable: catalog: 45181, numindb: 32
Update: records affected: 1



GetName: 45181 STARLINK-1200

Hit Count: updated at: Mon, 13 Jul 2020 04:39:13 GMT